EW5205 Weather Reports


Display with metric or nautical units.
time (UTC)temp
F
wind
direction
speed
MPH
gust
MPH
rain 1hr
in
rain 24hr
in
rain mn
in
humidity
%
barometer
mb
20260509224601 86 247 1.0 7.0 0.00 0.00 0.00 9 1012.9
20260509223028 86 208 6.0 13.0 0.00 0.00 0.00 8 1013.2
20260509221624 87 206 3.0 14.0 0.00 0.00 0.00 8 1013.3
20260509214504 86 202 4.0 15.0 0.00 0.00 0.00 8 1013.7
20260509213132 87 218 6.0 14.0 0.00 0.00 0.00 8 1014.0
20260509211554 87 280 7.0 12.0 0.00 0.00 0.00 8 1014.3
20260509204557 86 193 3.0 17.0 0.00 0.00 0.00 9 1014.5
20260509203013 87 328 3.0 21.0 0.00 0.00 0.00 9 1015.0
20260509201607 87 224 12.0 17.0 0.00 0.00 0.00 8 1014.9
20260509200001 86 275 9.0 18.0 0.00 0.00 0.00 9 1015.4
20260509194603 85 257 6.0 19.0 0.00 0.00 0.00 10 1015.5
20260509193028 85 225 7.0 14.0 0.00 0.00 0.00 9 1015.8
20260509191620 85 243 7.0 14.0 0.00 0.00 0.00 10 1016.1
20260509184535 83 280 3.0 10.0 0.00 0.00 0.00 10 1016.4
20260509183117 83 242 2.0 9.0 0.00 0.00 0.00 11 1016.7
20260509181609 82 221 3.0 9.0 0.00 0.00 0.00 12 1016.9
20260509180002 81 270 0.0 7.0 0.00 0.00 0.00 12 1017.3
20260509174601 80 235 1.0 3.0 0.00 0.00 0.00 14 1017.7
20260509173000 79 194 2.0 5.0 0.00 0.00 0.00 14 1017.9
20260509171603 77 200 3.0 7.0 0.00 0.00 0.00 16 1017.9
20260509164542 75 245 0.0 0.0 0.00 0.00 0.00 17 1018.3
20260509163135 74 20 0.0 5.0 0.00 0.00 0.00 18 1018.2
20260509161528 73 232 1.0 6.0 0.00 0.00 0.00 18 1018.2
20260509160023 73 292 3.0 12.0 0.00 0.00 0.00 18 1018.0
20260509154521 71 278 2.0 7.0 0.00 0.00 0.00 19 1018.2
20260509153015 70 277 3.0 5.0 0.00 0.00 0.00 20 1018.2
20260509151510 70 306 0.0 5.0 0.00 0.00 0.00 21 1018.2
20260509150015 70 294 0.0 4.0 0.00 0.00 0.00 20 1018.0
20260509144507 70 21 0.0 0.0 0.00 0.00 0.00 20 1017.9
20260509143058 69 316 0.0 0.0 0.00 0.00 0.00 21 1017.9
20260509141558 70 35 0.0 0.0 0.00 0.00 0.00 20 1017.9
20260509140110 70 142 0.0 0.0 0.00 0.00 0.00 22 1017.9
20260509134554 66 130 0.0 0.0 0.00 0.00 0.00 26 1017.9
20260509133056 61 124 0.0 0.0 0.00 0.00 0.00 29 1017.9
20260509131556 56 131 0.0 0.0 0.00 0.00 0.00 33 1017.9
20260509130053 55 119 0.0 0.0 0.00 0.00 0.00 31 1017.7
20260509124546 53 134 0.0 0.0 0.00 0.00 0.00 32 1017.5
20260509123045 52 138 0.0 1.0 0.00 0.00 0.00 33 1017.4
20260509121556 52 119 0.0 1.0 0.00 0.00 0.00 32 1017.1
20260509120043 50 132 0.0 2.0 0.00 0.00 0.00 33 1017.0
20260509114542 50 112 0.0 0.0 0.00 0.00 0.00 35 1016.7
20260509113038 50 124 0.0 0.0 0.00 0.00 0.00 35 1016.8
20260509111537 49 121 0.0 0.0 0.00 0.00 0.00 35 1016.7
20260509110035 48 118 0.0 0.0 0.00 0.00 0.00 36 1016.7
20260509104533 48 243 0.0 0.0 0.00 0.00 0.00 36 1016.5
20260509103030 50 140 0.0 0.0 0.00 0.00 0.00 33 1016.5
20260509101526 50 112 0.0 0.0 0.00 0.00 0.00 33 1016.4
20260509100029 50 305 0.0 0.0 0.00 0.00 0.00 32 1016.2
20260509094521 53 294 0.0 3.0 0.00 0.00 0.00 28 1016.2
20260509093018 53 150 0.0 1.0 0.00 0.00 0.00 29 1015.9
20260509091517 54 140 0.0 1.0 0.00 0.00 0.00 27 1015.6
20260509090016 53 108 0.0 0.0 0.00 0.00 0.00 28 1015.7
20260509084515 54 100 0.0 0.0 0.00 0.00 0.00 27 1015.7
20260509083007 55 316 0.0 0.0 0.00 0.00 0.00 26 1015.8
20260509081503 57 119 0.0 0.0 0.00 0.00 0.00 24 1015.5
20260509074556 60 69 0.0 1.0 0.00 0.00 0.00 23 1015.8
20260509073052 61 225 0.0 0.0 0.00 0.00 0.00 23 1015.8
20260509071550 65 115 0.0 4.0 0.00 0.00 0.00 21 1015.6
20260509070046 66 105 1.0 6.0 0.00 0.00 0.00 20 1015.8
20260509064546 66 108 1.0 6.0 0.00 0.00 0.00 20 1015.8
20260509063040 66 91 2.0 7.0 0.00 0.00 0.00 20 1015.8
20260509061542 66 81 0.0 8.0 0.00 0.00 0.00 20 1015.8
20260509060038 66 103 3.0 10.0 0.00 0.00 0.00 20 1015.8
20260509054539 65 97 5.0 10.0 0.00 0.00 0.00 20 1015.8
20260509053055 65 88 3.0 8.0 0.00 0.00 0.00 20 1015.8
20260509051534 66 81 2.0 7.0 0.00 0.00 0.00 19 1015.7
20260509050033 67 93 4.0 9.0 0.00 0.00 0.00 18 1015.8
20260509044534 68 83 6.0 11.0 0.00 0.00 0.00 17 1015.8
20260509043032 69 88 7.0 9.0 0.00 0.00 0.00 16 1015.6
20260509041542 70 81 2.0 6.0 0.00 0.00 0.00 15 1015.6
20260509040032 69 94 4.0 8.0 0.00 0.00 0.00 15 1015.4
20260509034530 67 106 1.0 4.0 0.00 0.00 0.00 16 1015.3
20260509033030 65 129 0.0 0.0 0.00 0.00 0.00 16 1015.2
20260509031530 67 112 0.0 1.0 0.00 0.00 0.00 16 1014.9
20260509030031 69 95 0.0 1.0 0.00 0.00 0.00 14 1014.7
20260509024529 71 83 0.0 0.0 0.00 0.00 0.00 13 1014.5
20260509023028 72 56 0.0 0.0 0.00 0.00 0.00 13 1014.4
20260509021528 73 309 0.0 0.0 0.00 0.00 0.00 12 1014.3
20260509020027 75 316 0.0 2.0 0.00 0.00 0.00 11 1014.2
20260509014527 77 301 0.0 4.0 0.00 0.00 0.00 11 1013.9
20260509013026 78 338 3.0 8.0 0.00 0.00 0.00 10 1013.8
20260509011529 80 319 0.0 7.0 0.00 0.00 0.00 10 1013.6
20260509010038 81 301 1.0 9.0 0.00 0.00 0.00 9 1013.5
20260509004528 81 298 3.0 11.0 0.00 0.00 0.00 10 1013.4
20260509003023 82 350 1.0 6.0 0.00 0.00 0.00 9 1013.3
20260509001516 83 337 0.0 8.0 0.00 0.00 0.00 9 1013.3
20260509000110 83 280 2.0 7.0 0.00 0.00 0.00 9 1013.3
20260508234556 83 238 0.0 8.0 0.00 0.00 0.00 9 1013.2
20260508233020 83 306 2.0 6.0 0.00 0.00 0.00 9 1013.2
20260508231620 83 134 0.0 4.0 0.00 0.00 0.00 9 1013.1